« Back
NWS Peachtree City, Ga » Text Product » GA Regional Weather Roundup


Printer-friendly Version
Current Version              Previous Versions:   1  2  3  4  5  6  7  8  9  

Regional Weather Roundup

665
ASUS42 KFFC 220103
RWRGA
WEATHER ROUNDUP FOR GEORGIA
NATIONAL WEATHER SERVICE PEACHTREE CITY GA
900 PM EDT THU AUG 21 2014

NOTE: "FAIR" INDICATES FEW OR NO CLOUDS BELOW 12,000 FEET WITH NO
SIGNIFICANT WEATHER AND/OR OBSTRUCTIONS TO VISIBILITY.

* = USE WITH CAUTION. THE STATIONS MARKED WITH AN ASTERISK MAY NOT
REPORT WEATHER SUCH AS PRECIPITATION, FOG, OR THUNDER AND ARE NOT
QUALITY CONTROLLED BY NWS.

THE REMARK "TC" DENOTES TEMPERATURE READING IN DEGREES CELSIUS.

GAZ001>058-220200-
NORTH GEORGIA

CITY           SKY/WX    TMP DP  RH WIND       PRES   REMARKS
ATLANTA        PTCLDY    78  70  76 W6        30.11S
ATHENS         PTCLDY    79  70  74 CALM      30.09S
CHAMBLEE       PTCLDY    80  70  71 CALM      30.11F
PEACHTREE CITY PTCLDY    74  73  97 CALM      30.12S FOG
ROME           PTCLDY    79  75  87 S3        30.09R
WEST ATLANTA   PTCLDY    79  73  82 CALM      30.10F
GAINESVILLE    PTCLDY    82  71  69 W6        30.14S
CARTERSVILLE   PTCLDY    76  73  91 CALM      30.10F


CITY           SKY/WX    TMP DP  RH WIND       PRES   REMARKS
DALTON*        CLEAR     79  75  89 CALM      30.09S
LAWRENCEVILLE* CLEAR     84  66  54 CALM      30.11S
MARIETTA       MOCLDY    81  74  79 W2        30.11F
KENNESAW*      PTCLDY    82  70  65 SW3       30.13S
$$

GAZ059>098-102>109-220200-
CENTRAL GEORGIA

CITY           SKY/WX    TMP DP  RH WIND       PRES   REMARKS
AUGUSTA-BUSH   CLEAR     82  69  64 CALM      30.03S
AUGUSTA-DANIEL CLEAR     91  65  41 VRB3      30.06S HX  93
COLUMBUS       MOCLDY    82  71  69 CALM      30.08S
MACON          CLEAR     81  73  76 W6        30.07R
ROBINS AFB     CLEAR     82  73  75 CALM      30.06S


CITY           SKY/WX    TMP DP  RH WIND       PRES   REMARKS
LAGRANGE*      MOCLDY    80  77  91 CALM      30.10S
SYLVANIA*      CLEAR     80  77  89 CALM      30.06S
MILLEDGEVILLE* CLEAR     82  75  78 CALM      30.07R
$$

GAZ099>101-110>166-220200-
SOUTH GEORGIA

CITY           SKY/WX    TMP DP  RH WIND       PRES   REMARKS
SAVANNAH       PTCLDY    85  73  67 CALM      30.05R HX  91
VALDOSTA       LGT RAIN  78  72  81 CALM      30.08F
ALMA           CLEAR     83  75  77 CALM      30.07R HX  90
ST SIMONS      CLEAR     85  79  82 S9        30.06R HX  98
FT STEWART     CLEAR     83  72  69 CALM      30.04R
ALBANY         MOCLDY    75  71  87 CALM      30.10R
HUNTER AFB     CLEAR     85  74  71 E1        30.02S HX  92
MOODY AFB      CLOUDY    79  74  86 CALM      30.08R
BRUNSWICK      CLEAR     81  73  78 CALM      30.06R


CITY           SKY/WX    TMP DP  RH WIND       PRES   REMARKS
BAINBRIDGE*    CLOUDY    81  77  89 CALM      30.08S
MOULTRIE*      MOCLDY    79  73  83 CALM      30.10R
VIDALIA*         N/A     82  75  78 CALM      30.06S
WAYCROSS*      CLEAR     87  79  77 CALM      30.06R HX 100
DOUGLAS*       CLEAR     86  70  58 W3        30.09R HX  90
$$



USA.gov is the U.S. government's official web portal to all federal, state and local government web resources and services.